| time (UTC) | temp F | wind direction | speed knots | gust knots | rain 1hr in | rain 24hr in | rain mn in | humidity % | barometer mb |
| 20260508023627 | 79 | 89 | 1.7 | 3.5 | 0.00 | 0.00 | 0.00 | 89 | 1016.3 |
| 20260508023125 | 80 | 85 | 1.7 | 5.2 | 0.00 | 0.00 | 0.00 | 89 | 1016.4 |
| 20260508022621 | 80 | 102 | 4.3 | 5.2 | 0.00 | 0.00 | 0.00 | 89 | 1016.3 |
| 20260508022118 | 80 | 104 | 2.6 | 5.2 | 0.00 | 0.00 | 0.00 | 89 | 1016.1 |
| 20260508021613 | 80 | 87 | 5.2 | 6.1 | 0.00 | 0.00 | 0.00 | 89 | 1016.2 |
| 20260508021110 | 80 | 86 | 3.5 | 4.3 | 0.00 | 0.00 | 0.00 | 89 | 1016.3 |
| 20260508020608 | 80 | 93 | 3.5 | 6.1 | 0.00 | 0.00 | 0.00 | 89 | 1016.3 |
| 20260508020105 | 80 | 101 | 1.7 | 4.3 | 0.00 | 0.00 | 0.00 | 89 | 1016.1 |
| 20260508015602 | 80 | 81 | 3.5 | 5.2 | 0.00 | 0.00 | 0.00 | 89 | 1016.3 |
| 20260508015059 | 80 | 83 | 3.5 | 6.1 | 0.00 | 0.00 | 0.00 | 88 | 1016.4 |
| 20260508014555 | 80 | 68 | 3.5 | 8.7 | 0.00 | 0.00 | 0.00 | 88 | 1016.2 |
| 20260508014052 | 80 | 95 | 2.6 | 7.0 | 0.00 | 0.00 | 0.00 | 88 | 1016.4 |
| 20260508013548 | 80 | 69 | 3.5 | 7.0 | 0.00 | 0.00 | 0.00 | 88 | 1016.3 |
| 20260508013045 | 80 | 69 | 5.2 | 7.0 | 0.00 | 0.00 | 0.00 | 88 | 1016.4 |
| 20260508012542 | 80 | 72 | 5.2 | 6.1 | 0.00 | 0.00 | 0.00 | 88 | 1016.2 |
| 20260508012040 | 80 | 76 | 4.3 | 6.1 | 0.00 | 0.00 | 0.00 | 88 | 1016.3 |
| 20260508011538 | 80 | 77 | 4.3 | 6.1 | 0.00 | 0.00 | 0.00 | 88 | 1015.9 |
| 20260508011035 | 80 | 73 | 6.1 | 7.0 | 0.00 | 0.00 | 0.00 | 88 | 1016.2 |
| 20260508010531 | 80 | 70 | 4.3 | 6.1 | 0.00 | 0.00 | 0.00 | 88 | 1016.1 |
| 20260508010029 | 80 | 80 | 3.5 | 7.8 | 0.00 | 0.00 | 0.00 | 88 | 1016.2 |
| 20260508005525 | 80 | 70 | 5.2 | 7.0 | 0.00 | 0.00 | 0.00 | 88 | 1016.0 |
| 20260508005022 | 80 | 82 | 5.2 | 7.0 | 0.00 | 0.00 | 0.00 | 88 | 1015.8 |
| 20260508004518 | 80 | 77 | 6.1 | 7.0 | 0.00 | 0.00 | 0.00 | 88 | 1016.0 |
| 20260508004015 | 80 | 71 | 5.2 | 7.8 | 0.00 | 0.00 | 0.00 | 88 | 1016.0 |
| 20260508003512 | 81 | 71 | 6.1 | 7.8 | 0.00 | 0.00 | 0.00 | 87 | 1015.8 |
| 20260508003009 | 81 | 73 | 7.8 | 8.7 | 0.00 | 0.00 | 0.00 | 87 | 1015.8 |
| 20260508002505 | 80 | 79 | 7.0 | 7.8 | 0.00 | 0.00 | 0.00 | 87 | 1015.8 |
| 20260508002003 | 81 | 65 | 5.2 | 7.8 | 0.00 | 0.00 | 0.00 | 87 | 1016.0 |
| 20260508001458 | 80 | 69 | 7.0 | 7.0 | 0.00 | 0.00 | 0.00 | 87 | 1015.8 |
| 20260508000955 | 80 | 74 | 5.2 | 7.0 | 0.00 | 0.00 | 0.00 | 87 | 1015.7 |
| 20260508000450 | 81 | 66 | 3.5 | 7.0 | 0.00 | 0.00 | 0.00 | 87 | 1015.7 |
| 20260507235948 | 81 | 83 | 4.3 | 7.0 | 0.00 | 0.00 | 0.00 | 87 | 1015.7 |
| 20260507235444 | 81 | 69 | 5.2 | 7.0 | 0.00 | 0.00 | 0.00 | 86 | 1015.4 |
| 20260507234942 | 81 | 78 | 5.2 | 7.8 | 0.00 | 0.00 | 0.00 | 86 | 1015.7 |
| 20260507234438 | 81 | 70 | 6.1 | 8.7 | 0.00 | 0.00 | 0.00 | 86 | 1015.5 |
| 20260507233935 | 81 | 77 | 5.2 | 7.8 | 0.00 | 0.00 | 0.00 | 86 | 1015.5 |
| 20260507233432 | 81 | 77 | 3.5 | 8.7 | 0.00 | 0.00 | 0.00 | 86 | 1015.6 |
| 20260507232930 | 81 | 77 | 5.2 | 7.0 | 0.00 | 0.00 | 0.00 | 85 | 1015.5 |
| 20260507232426 | 81 | 80 | 5.2 | 7.0 | 0.00 | 0.00 | 0.00 | 85 | 1015.3 |
| 20260507231924 | 81 | 87 | 4.3 | 7.0 | 0.00 | 0.00 | 0.00 | 84 | 1015.4 |
| 20260507231420 | 81 | 76 | 5.2 | 7.0 | 0.00 | 0.00 | 0.00 | 84 | 1015.4 |
| 20260507230917 | 82 | 75 | 5.2 | 7.8 | 0.00 | 0.00 | 0.00 | 84 | 1015.3 |
| 20260507230415 | 82 | 73 | 5.2 | 7.8 | 0.00 | 0.00 | 0.00 | 84 | 1015.4 |
| 20260507225914 | 82 | 80 | 5.2 | 7.8 | 0.00 | 0.00 | 0.00 | 83 | 1015.2 |
| 20260507225411 | 82 | 69 | 4.3 | 7.8 | 0.00 | 0.00 | 0.00 | 83 | 1015.2 |
| 20260507224907 | 82 | 77 | 7.0 | 9.6 | 0.00 | 0.00 | 0.00 | 83 | 1015.2 |
| 20260507224403 | 82 | 71 | 7.8 | 7.8 | 0.00 | 0.00 | 0.00 | 83 | 1015.2 |
| 20260507223900 | 82 | 70 | 6.1 | 7.8 | 0.00 | 0.00 | 0.00 | 82 | 1015.1 |
| 20260507223356 | 82 | 66 | 6.1 | 7.8 | 0.00 | 0.00 | 0.00 | 82 | 1015.1 |
| 20260507222854 | 83 | 71 | 7.0 | 7.8 | 0.00 | 0.00 | 0.00 | 82 | 1015.0 |
| 20260507222349 | 83 | 70 | 5.2 | 8.7 | 0.00 | 0.00 | 0.00 | 82 | 1015.1 |
| 20260507221846 | 83 | 59 | 4.3 | 7.0 | 0.00 | 0.00 | 0.00 | 82 | 1015.2 |
| 20260507221343 | 83 | 60 | 6.1 | 7.8 | 0.00 | 0.00 | 0.00 | 81 | 1015.2 |
| 20260507220839 | 83 | 50 | 3.5 | 7.0 | 0.00 | 0.00 | 0.00 | 81 | 1015.1 |
| 20260507220337 | 83 | 52 | 5.2 | 9.6 | 0.00 | 0.00 | 0.00 | 81 | 1015.2 |
| 20260507215833 | 83 | 75 | 7.0 | 8.7 | 0.00 | 0.00 | 0.00 | 81 | 1015.1 |
| 20260507215330 | 83 | 66 | 6.1 | 8.7 | 0.00 | 0.00 | 0.00 | 80 | 1015.1 |
| 20260507214827 | 84 | 76 | 5.2 | 7.8 | 0.00 | 0.00 | 0.00 | 80 | 1015.0 |
| 20260507214326 | 83 | 75 | 6.1 | 9.6 | 0.00 | 0.00 | 0.00 | 80 | 1014.9 |
| 20260507213826 | 84 | 65 | 3.5 | 7.8 | 0.00 | 0.00 | 0.00 | 80 | 1014.9 |
| 20260507213323 | 84 | 74 | 3.5 | 9.6 | 0.00 | 0.00 | 0.00 | 79 | 1015.0 |
| 20260507212820 | 84 | 91 | 3.5 | 7.0 | 0.00 | 0.00 | 0.00 | 79 | 1015.1 |
| 20260507212316 | 84 | 80 | 3.5 | 6.1 | 0.00 | 0.00 | 0.00 | 79 | 1015.0 |
| 20260507211812 | 84 | 65 | 4.3 | 7.8 | 0.00 | 0.00 | 0.00 | 79 | 1014.9 |
| 20260507211309 | 85 | 88 | 2.6 | 6.1 | 0.00 | 0.00 | 0.00 | 79 | 1014.9 |
| 20260507210806 | 84 | 97 | 2.6 | 5.2 | 0.00 | 0.00 | 0.00 | 80 | 1015.1 |
| 20260507210303 | 84 | 71 | 5.2 | 8.7 | 0.00 | 0.00 | 0.00 | 80 | 1015.1 |
| 20260507205759 | 84 | 67 | 8.7 | 9.6 | 0.00 | 0.00 | 0.00 | 79 | 1015.1 |
| 20260507205256 | 84 | 71 | 7.0 | 8.7 | 0.00 | 0.00 | 0.00 | 79 | 1015.0 |
| 20260507204752 | 84 | 92 | 3.5 | 7.0 | 0.00 | 0.00 | 0.00 | 81 | 1015.1 |
| 20260507204250 | 83 | 65 | 5.2 | 9.6 | 0.00 | 0.00 | 0.00 | 80 | 1015.1 |
| 20260507203748 | 84 | 88 | 4.3 | 8.7 | 0.00 | 0.00 | 0.00 | 81 | 1015.2 |
| 20260507203245 | 83 | 63 | 5.2 | 10.4 | 0.00 | 0.00 | 0.00 | 80 | 1015.1 |
| 20260507202741 | 84 | 75 | 5.2 | 8.7 | 0.00 | 0.00 | 0.00 | 80 | 1015.1 |
| 20260507202237 | 84 | 71 | 4.3 | 7.0 | 0.00 | 0.00 | 0.00 | 81 | 1015.3 |
| 20260507201732 | 83 | 75 | 4.3 | 8.7 | 0.00 | 0.00 | 0.00 | 81 | 1014.9 |
| 20260507201229 | 83 | 81 | 4.3 | 7.0 | 0.00 | 0.00 | 0.00 | 79 | 1015.1 |
| 20260507200726 | 85 | 96 | 4.3 | 9.6 | 0.00 | 0.00 | 0.00 | 80 | 1015.2 |
| 20260507200222 | 84 | 76 | 7.0 | 10.4 | 0.00 | 0.00 | 0.00 | 79 | 1015.2 |
| 20260507195718 | 84 | 77 | 5.2 | 8.7 | 0.00 | 0.00 | 0.00 | 79 | 1015.1 |
| 20260507195216 | 84 | 79 | 3.5 | 7.8 | 0.00 | 0.00 | 0.00 | 80 | 1015.3 |
| 20260507194712 | 85 | 80 | 5.2 | 7.8 | 0.00 | 0.00 | 0.00 | 79 | 1015.4 |
| 20260507194209 | 85 | 110 | 2.6 | 8.7 | 0.00 | 0.00 | 0.00 | 79 | 1015.3 |
| 20260507193705 | 85 | 87 | 5.2 | 7.8 | 0.00 | 0.00 | 0.00 | 80 | 1015.2 |
| 20260507193202 | 85 | 87 | 6.1 | 8.7 | 0.00 | 0.00 | 0.00 | 80 | 1015.3 |
| 20260507192658 | 84 | 108 | 4.3 | 7.8 | 0.00 | 0.00 | 0.00 | 80 | 1015.3 |
| 20260507192155 | 85 | 89 | 6.1 | 8.7 | 0.00 | 0.00 | 0.00 | 80 | 1015.4 |
| 20260507191651 | 84 | 85 | 5.2 | 9.6 | 0.00 | 0.00 | 0.00 | 82 | 1015.4 |
| 20260507191148 | 83 | 79 | 7.8 | 11.3 | 0.00 | 0.00 | 0.00 | 81 | 1015.5 |
| 20260507190645 | 83 | 81 | 7.0 | 11.3 | 0.00 | 0.00 | 0.00 | 80 | 1015.3 |
| 20260507190144 | 84 | 77 | 7.8 | 9.6 | 0.00 | 0.00 | 0.00 | 81 | 1015.5 |
| 20260507185642 | 84 | 80 | 7.8 | 12.2 | 0.00 | 0.00 | 0.00 | 81 | 1015.5 |
| 20260507185138 | 84 | 82 | 9.6 | 13.0 | 0.00 | 0.00 | 0.00 | 80 | 1015.7 |
| 20260507184636 | 84 | 77 | 5.2 | 11.3 | 0.00 | 0.00 | 0.00 | 81 | 1015.6 |
| 20260507184134 | 84 | 77 | 8.7 | 13.0 | 0.00 | 0.00 | 0.00 | 81 | 1015.8 |
| 20260507183630 | 84 | 70 | 10.4 | 12.2 | 0.00 | 0.00 | 0.00 | 81 | 1015.8 |
| 20260507183127 | 84 | 82 | 7.0 | 9.6 | 0.00 | 0.00 | 0.00 | 82 | 1016.1 |
| 20260507182623 | 84 | 65 | 10.4 | 11.3 | 0.00 | 0.00 | 0.00 | 81 | 1016.0 |
| 20260507182119 | 83 | 80 | 9.6 | 13.0 | 0.00 | 0.00 | 0.00 | 82 | 1016.0 |
| 20260507181616 | 83 | 69 | 7.8 | 12.2 | 0.00 | 0.00 | 0.00 | 82 | 1016.2 |
| 20260507181112 | 83 | 74 | 7.8 | 13.0 | 0.00 | 0.00 | 0.00 | 81 | 1016.1 |
| 20260507180609 | 84 | 85 | 7.8 | 12.2 | 0.00 | 0.00 | 0.00 | 82 | 1016.1 |
| 20260507180106 | 83 | 85 | 7.8 | 12.2 | 0.00 | 0.00 | 0.00 | 81 | 1016.3 |
| 20260507175602 | 84 | 94 | 5.2 | 10.4 | 0.00 | 0.00 | 0.00 | 81 | 1016.3 |
| 20260507175100 | 83 | 74 | 6.1 | 12.2 | 0.00 | 0.00 | 0.00 | 82 | 1016.6 |
| 20260507174557 | 83 | 69 | 8.7 | 12.2 | 0.00 | 0.00 | 0.00 | 80 | 1016.5 |
| 20260507174054 | 84 | 87 | 6.1 | 11.3 | 0.00 | 0.00 | 0.00 | 81 | 1016.6 |
| 20260507173551 | 83 | 74 | 7.8 | 13.0 | 0.00 | 0.00 | 0.00 | 81 | 1016.4 |
| 20260507173048 | 84 | 72 | 7.0 | 11.3 | 0.00 | 0.00 | 0.00 | 81 | 1016.5 |
| 20260507172544 | 83 | 74 | 6.1 | 9.6 | 0.00 | 0.00 | 0.00 | 81 | 1016.5 |
| 20260507172042 | 83 | 74 | 8.7 | 13.0 | 0.00 | 0.00 | 0.00 | 81 | 1016.5 |
| 20260507171536 | 83 | 83 | 8.7 | 10.4 | 0.00 | 0.00 | 0.00 | 81 | 1016.6 |
| 20260507171034 | 83 | 73 | 10.4 | 13.9 | 0.00 | 0.00 | 0.00 | 80 | 1016.6 |
| 20260507170530 | 84 | 82 | 5.2 | 11.3 | 0.00 | 0.00 | 0.00 | 79 | 1016.6 |
| 20260507170028 | 85 | 70 | 4.3 | 8.7 | 0.00 | 0.00 | 0.00 | 79 | 1016.9 |
| 20260507165523 | 84 | 92 | 6.1 | 10.4 | 0.00 | 0.00 | 0.00 | 80 | 1016.8 |
| 20260507165020 | 84 | 85 | 9.6 | 13.9 | 0.00 | 0.00 | 0.00 | 79 | 1016.8 |
| 20260507164516 | 85 | 73 | 8.7 | 10.4 | 0.00 | 0.00 | 0.00 | 79 | 1017.0 |
| 20260507164013 | 85 | 105 | 7.0 | 9.6 | 0.00 | 0.00 | 0.00 | 79 | 1017.0 |
| 20260507163510 | 85 | 108 | 5.2 | 9.6 | 0.00 | 0.00 | 0.00 | 79 | 1017.1 |
| 20260507163009 | 84 | 87 | 8.7 | 11.3 | 0.00 | 0.00 | 0.00 | 79 | 1017.0 |
| 20260507162503 | 85 | 86 | 7.0 | 9.6 | 0.00 | 0.00 | 0.00 | 79 | 1017.0 |
| 20260507162000 | 84 | 76 | 7.0 | 11.3 | 0.00 | 0.00 | 0.00 | 79 | 1017.0 |
| 20260507161456 | 85 | 69 | 9.6 | 12.2 | 0.00 | 0.00 | 0.00 | 79 | 1017.0 |
| 20260507160954 | 85 | 94 | 5.2 | 9.6 | 0.00 | 0.00 | 0.00 | 79 | 1017.3 |
| 20260507160449 | 85 | 79 | 5.2 | 9.6 | 0.00 | 0.00 | 0.00 | 79 | 1017.0 |
| 20260507155945 | 85 | 87 | 8.7 | 9.6 | 0.00 | 0.00 | 0.00 | 79 | 1017.3 |
| 20260507155441 | 84 | 84 | 5.2 | 11.3 | 0.00 | 0.00 | 0.00 | 80 | 1017.4 |
| 20260507154939 | 85 | 70 | 4.3 | 11.3 | 0.00 | 0.00 | 0.00 | 80 | 1017.5 |
| 20260507154435 | 84 | 89 | 4.3 | 11.3 | 0.00 | 0.00 | 0.00 | 80 | 1017.4 |
| 20260507153932 | 84 | 83 | 6.1 | 9.6 | 0.00 | 0.00 | 0.00 | 80 | 1017.5 |
| 20260507153429 | 84 | 76 | 8.7 | 12.2 | 0.00 | 0.00 | 0.00 | 79 | 1017.5 |
| 20260507152925 | 84 | 79 | 6.1 | 9.6 | 0.00 | 0.00 | 0.00 | 80 | 1017.6 |
| 20260507152421 | 84 | 96 | 4.3 | 10.4 | 0.00 | 0.00 | 0.00 | 79 | 1017.7 |
| 20260507151917 | 84 | 78 | 7.8 | 12.2 | 0.00 | 0.00 | 0.00 | 79 | 1017.6 |
| 20260507151414 | 84 | 102 | 2.6 | 9.6 | 0.00 | 0.00 | 0.00 | 79 | 1017.6 |
| 20260507150911 | 84 | 89 | 5.2 | 10.4 | 0.00 | 0.00 | 0.00 | 79 | 1017.8 |
| 20260507150408 | 84 | 78 | 7.0 | 9.6 | 0.00 | 0.00 | 0.00 | 79 | 1017.7 |
| 20260507145904 | 84 | 72 | 6.1 | 9.6 | 0.00 | 0.00 | 0.00 | 79 | 1017.6 |
| 20260507145400 | 85 | 83 | 5.2 | 9.6 | 0.00 | 0.00 | 0.00 | 78 | 1017.6 |
| 20260507144857 | 85 | 66 | 3.5 | 8.7 | 0.00 | 0.00 | 0.00 | 79 | 1017.4 |
| 20260507144355 | 84 | 83 | 3.5 | 7.8 | 0.00 | 0.00 | 0.00 | 79 | 1017.4 |
| 20260507143851 | 84 | 83 | 7.0 | 11.3 | 0.00 | 0.00 | 0.00 | 79 | 1017.4 |
| 20260507143348 | 84 | 73 | 5.2 | 11.3 | 0.00 | 0.00 | 0.00 | 78 | 1017.4 |
| 20260507142845 | 85 | 93 | 5.2 | 7.8 | 0.00 | 0.00 | 0.00 | 79 | 1017.4 |
| 20260507142341 | 84 | 95 | 5.2 | 12.2 | 0.00 | 0.00 | 0.00 | 78 | 1017.6 |
| 20260507141838 | 85 | 114 | 4.3 | 7.8 | 0.00 | 0.00 | 0.00 | 78 | 1017.4 |
| 20260507141334 | 85 | 99 | 5.2 | 12.2 | 0.00 | 0.00 | 0.00 | 79 | 1017.4 |
| 20260507140831 | 85 | 88 | 5.2 | 9.6 | 0.00 | 0.00 | 0.00 | 78 | 1017.4 |
| 20260507140328 | 84 | 108 | 5.2 | 11.3 | 0.00 | 0.00 | 0.00 | 79 | 1017.2 |
| 20260507135826 | 85 | 93 | 3.5 | 7.8 | 0.00 | 0.00 | 0.00 | 79 | 1017.2 |
| 20260507135322 | 85 | 102 | 5.2 | 8.7 | 0.00 | 0.00 | 0.00 | 79 | 1017.3 |
| 20260507134819 | 85 | 95 | 6.1 | 10.4 | 0.00 | 0.00 | 0.00 | 78 | 1017.2 |
| 20260507134316 | 85 | 110 | 4.3 | 6.1 | 0.00 | 0.00 | 0.00 | 79 | 1017.3 |
| 20260507133811 | 85 | 113 | 7.0 | 7.8 | 0.00 | 0.00 | 0.00 | 79 | 1017.3 |
| 20260507133308 | 84 | 70 | 5.2 | 7.0 | 0.00 | 0.00 | 0.00 | 80 | 1017.3 |
| 20260507132806 | 84 | 91 | 4.3 | 7.8 | 0.00 | 0.00 | 0.00 | 81 | 1017.2 |
| 20260507132306 | 84 | 95 | 4.3 | 11.3 | 0.00 | 0.00 | 0.00 | 80 | 1017.2 |
| 20260507131759 | 84 | 84 | 5.2 | 7.8 | 0.00 | 0.00 | 0.00 | 81 | 1017.1 |
| 20260507131256 | 84 | 83 | 4.3 | 7.8 | 0.00 | 0.00 | 0.00 | 81 | 1017.2 |
| 20260507130753 | 84 | 88 | 3.5 | 6.1 | 0.00 | 0.00 | 0.00 | 82 | 1017.2 |
| 20260507130250 | 84 | 87 | 2.6 | 9.6 | 0.00 | 0.00 | 0.00 | 82 | 1017.0 |
| 20260507125749 | 84 | 93 | 4.3 | 9.6 | 0.00 | 0.00 | 0.00 | 83 | 1017.0 |
| 20260507125246 | 84 | 119 | 0.9 | 8.7 | 0.00 | 0.00 | 0.00 | 83 | 1016.9 |
| 20260507124743 | 84 | 69 | 2.6 | 6.1 | 0.00 | 0.00 | 0.00 | 84 | 1017.0 |
| 20260507124239 | 83 | 69 | 3.5 | 7.8 | 0.00 | 0.00 | 0.00 | 85 | 1016.9 |
| 20260507123738 | 83 | 106 | 4.3 | 7.8 | 0.00 | 0.00 | 0.00 | 85 | 1016.6 |
| 20260507123235 | 82 | 92 | 2.6 | 3.5 | 0.00 | 0.00 | 0.00 | 86 | 1016.8 |
| 20260507122730 | 82 | 97 | 0.9 | 5.2 | 0.00 | 0.00 | 0.00 | 86 | 1016.7 |
| 20260507122227 | 82 | 102 | 2.6 | 4.3 | 0.00 | 0.00 | 0.00 | 87 | 1016.8 |
| 20260507121722 | 82 | 120 | 4.3 | 6.1 | 0.00 | 0.00 | 0.00 | 87 | 1016.6 |
| 20260507121218 | 82 | 102 | 1.7 | 4.3 | 0.00 | 0.00 | 0.00 | 88 | 1016.6 |
| 20260507120715 | 81 | 80 | 2.6 | 8.7 | 0.00 | 0.00 | 0.00 | 88 | 1016.5 |
| 20260507120212 | 82 | 119 | 1.7 | 5.2 | 0.00 | 0.00 | 0.00 | 88 | 1016.4 |
| 20260507115708 | 82 | 132 | 5.2 | 5.2 | 0.00 | 0.00 | 0.00 | 89 | 1016.6 |
| 20260507115204 | 81 | 73 | 1.7 | 5.2 | 0.00 | 0.00 | 0.00 | 89 | 1016.4 |
| 20260507114659 | 82 | 105 | 1.7 | 7.0 | 0.00 | 0.00 | 0.00 | 89 | 1016.4 |
| 20260507114157 | 81 | 108 | 3.5 | 3.5 | 0.00 | 0.00 | 0.00 | 90 | 1016.5 |
| 20260507113654 | 81 | 84 | 2.6 | 3.5 | 0.00 | 0.00 | 0.00 | 91 | 1016.4 |
| 20260507113151 | 80 | 105 | 3.5 | 5.2 | 0.00 | 0.00 | 0.00 | 90 | 1016.1 |
| 20260507112649 | 80 | 87 | 2.6 | 4.3 | 0.00 | 0.00 | 0.00 | 91 | 1016.2 |
| 20260507112145 | 80 | 94 | 1.7 | 3.5 | 0.00 | 0.00 | 0.00 | 91 | 1016.0 |
| 20260507111643 | 79 | 41 | 0.9 | 5.2 | 0.00 | 0.00 | 0.00 | 92 | 1015.9 |
| 20260507111139 | 79 | 119 | 3.5 | 4.3 | 0.00 | 0.00 | 0.00 | 92 | 1016.0 |
| 20260507110635 | 78 | 124 | 3.5 | 3.5 | 0.00 | 0.00 | 0.00 | 92 | 1016.2 |
| 20260507110132 | 78 | 110 | 3.5 | 3.5 | 0.00 | 0.00 | 0.00 | 92 | 1016.0 |
| 20260507105629 | 78 | 92 | 3.5 | 3.5 | 0.00 | 0.00 | 0.00 | 92 | 1016.0 |
| 20260507105125 | 78 | 66 | 0.9 | 5.2 | 0.00 | 0.00 | 0.00 | 92 | 1015.9 |
| 20260507104622 | 78 | 95 | 0.9 | 5.2 | 0.00 | 0.00 | 0.00 | 92 | 1016.0 |
| 20260507104119 | 78 | 124 | 3.5 | 4.3 | 0.00 | 0.00 | 0.00 | 92 | 1015.9 |
| 20260507103615 | 78 | 131 | 2.6 | 5.2 | 0.00 | 0.00 | 0.00 | 92 | 1015.8 |
| 20260507103112 | 77 | 130 | 2.6 | 4.3 | 0.00 | 0.00 | 0.00 | 92 | 1015.7 |
| 20260507102608 | 77 | 104 | 2.6 | 4.3 | 0.00 | 0.00 | 0.00 | 92 | 1015.6 |
| 20260507102105 | 77 | 127 | 2.6 | 5.2 | 0.00 | 0.00 | 0.00 | 92 | 1015.6 |
| 20260507101601 | 77 | 126 | 2.6 | 5.2 | 0.00 | 0.00 | 0.00 | 92 | 1015.5 |
| 20260507101057 | 77 | 129 | 4.3 | 5.2 | 0.00 | 0.00 | 0.00 | 92 | 1015.7 |
| 20260507100554 | 77 | 125 | 1.7 | 4.3 | 0.00 | 0.00 | 0.00 | 92 | 1015.6 |
| 20260507100052 | 77 | 124 | 1.7 | 3.5 | 0.00 | 0.00 | 0.00 | 92 | 1015.7 |
| 20260507095549 | 78 | 109 | 1.7 | 5.2 | 0.00 | 0.00 | 0.00 | 92 | 1015.8 |
| 20260507095046 | 78 | 127 | 3.5 | 5.2 | 0.00 | 0.00 | 0.00 | 92 | 1015.6 |
| 20260507094542 | 78 | 114 | 3.5 | 5.2 | 0.00 | 0.00 | 0.00 | 92 | 1015.7 |
| 20260507094039 | 78 | 96 | 1.7 | 4.3 | 0.00 | 0.00 | 0.00 | 92 | 1015.5 |
| 20260507093537 | 78 | 101 | 2.6 | 5.2 | 0.00 | 0.00 | 0.00 | 92 | 1015.5 |
| 20260507093036 | 78 | 84 | 2.6 | 3.5 | 0.00 | 0.00 | 0.00 | 92 | 1015.6 |
| 20260507092531 | 78 | 91 | 0.9 | 3.5 | 0.00 | 0.00 | 0.00 | 92 | 1015.3 |
| 20260507092028 | 78 | 109 | 1.7 | 4.3 | 0.00 | 0.00 | 0.00 | 92 | 1015.5 |
| 20260507091525 | 78 | 126 | 1.7 | 5.2 | 0.00 | 0.00 | 0.00 | 92 | 1015.5 |
| 20260507091021 | 78 | 104 | 1.7 | 3.5 | 0.00 | 0.00 | 0.00 | 92 | 1015.4 |
| 20260507090517 | 78 | 108 | 3.5 | 4.3 | 0.00 | 0.00 | 0.00 | 92 | 1015.5 |
| 20260507090014 | 78 | 70 | 1.7 | 4.3 | 0.00 | 0.00 | 0.00 | 92 | 1015.4 |
| 20260507085511 | 78 | 133 | 2.6 | 3.5 | 0.00 | 0.00 | 0.00 | 92 | 1015.6 |
| 20260507085008 | 78 | 110 | 0.0 | 5.2 | 0.00 | 0.00 | 0.00 | 92 | 1015.5 |
| 20260507084504 | 78 | 118 | 1.7 | 5.2 | 0.00 | 0.00 | 0.00 | 92 | 1015.5 |
| 20260507084002 | 78 | 121 | 2.6 | 4.3 | 0.00 | 0.00 | 0.00 | 92 | 1015.5 |
| 20260507083458 | 78 | 119 | 2.6 | 3.5 | 0.00 | 0.00 | 0.00 | 92 | 1015.4 |
| 20260507082954 | 78 | 109 | 1.7 | 4.3 | 0.00 | 0.00 | 0.00 | 92 | 1015.5 |
| 20260507082450 | 78 | 107 | 1.7 | 4.3 | 0.00 | 0.00 | 0.00 | 92 | 1015.5 |
| 20260507081947 | 78 | 99 | 1.7 | 4.3 | 0.00 | 0.00 | 0.00 | 92 | 1015.3 |
| 20260507081443 | 78 | 103 | 2.6 | 3.5 | 0.00 | 0.00 | 0.00 | 92 | 1015.3 |
| 20260507080941 | 78 | 73 | 0.0 | 1.7 | 0.00 | 0.00 | 0.00 | 92 | 1015.3 |
| 20260507080436 | 78 | 109 | 1.7 | 5.2 | 0.00 | 0.00 | 0.00 | 92 | 1015.4 |
| 20260507075932 | 78 | 97 | 1.7 | 3.5 | 0.00 | 0.00 | 0.00 | 92 | 1015.3 |
| 20260507075428 | 78 | 128 | 2.6 | 5.2 | 0.00 | 0.00 | 0.00 | 92 | 1015.1 |
| 20260507074925 | 78 | 137 | 3.5 | 8.7 | 0.00 | 0.00 | 0.00 | 92 | 1015.1 |
| 20260507074422 | 78 | 119 | 3.5 | 5.2 | 0.00 | 0.00 | 0.00 | 92 | 1015.1 |
| 20260507073920 | 78 | 128 | 3.5 | 5.2 | 0.00 | 0.00 | 0.00 | 92 | 1015.0 |
| 20260507073416 | 78 | 85 | 3.5 | 4.3 | 0.00 | 0.00 | 0.00 | 92 | 1015.2 |
| 20260507072913 | 78 | 104 | 1.7 | 5.2 | 0.00 | 0.00 | 0.00 | 92 | 1015.4 |
| 20260507072411 | 78 | 129 | 4.3 | 7.8 | 0.00 | 0.00 | 0.00 | 92 | 1015.2 |
| 20260507071908 | 78 | 91 | 1.7 | 5.2 | 0.00 | 0.00 | 0.00 | 92 | 1015.2 |
| 20260507071405 | 78 | 116 | 3.5 | 5.2 | 0.00 | 0.00 | 0.00 | 92 | 1015.1 |
| 20260507070901 | 78 | 130 | 2.6 | 5.2 | 0.00 | 0.00 | 0.00 | 92 | 1015.4 |
| 20260507070359 | 78 | 102 | 3.5 | 5.2 | 0.00 | 0.00 | 0.00 | 92 | 1015.4 |
| 20260507065855 | 78 | 103 | 3.5 | 4.3 | 0.00 | 0.00 | 0.00 | 92 | 1015.5 |
| 20260507065352 | 78 | 100 | 1.7 | 6.1 | 0.00 | 0.00 | 0.00 | 92 | 1015.6 |
| 20260507064849 | 78 | 106 | 3.5 | 5.2 | 0.00 | 0.00 | 0.00 | 91 | 1015.3 |
| 20260507064347 | 78 | 108 | 2.6 | 5.2 | 0.00 | 0.00 | 0.00 | 91 | 1015.5 |
| 20260507063845 | 78 | 121 | 1.7 | 6.1 | 0.00 | 0.00 | 0.00 | 91 | 1015.6 |
| 20260507063342 | 78 | 122 | 5.2 | 5.2 | 0.00 | 0.00 | 0.00 | 91 | 1015.7 |
| 20260507062838 | 78 | 82 | 1.7 | 5.2 | 0.00 | 0.00 | 0.00 | 92 | 1015.9 |
| 20260507062335 | 78 | 123 | 3.5 | 8.7 | 0.00 | 0.00 | 0.00 | 92 | 1016.0 |
| 20260507061833 | 78 | 110 | 1.7 | 6.1 | 0.00 | 0.00 | 0.00 | 92 | 1016.0 |
| 20260507061331 | 79 | 96 | 1.7 | 5.2 | 0.00 | 0.00 | 0.00 | 91 | 1016.1 |
| 20260507060829 | 79 | 99 | 2.6 | 3.5 | 0.00 | 0.00 | 0.00 | 91 | 1016.1 |
| 20260507060326 | 79 | 78 | 2.6 | 7.0 | 0.00 | 0.00 | 0.00 | 91 | 1016.2 |
| 20260507055822 | 79 | 97 | 2.6 | 7.0 | 0.00 | 0.00 | 0.00 | 91 | 1016.1 |
| 20260507055318 | 79 | 95 | 1.7 | 5.2 | 0.00 | 0.00 | 0.00 | 91 | 1016.0 |
| 20260507054814 | 79 | 99 | 4.3 | 5.2 | 0.00 | 0.00 | 0.00 | 91 | 1016.1 |
| 20260507054310 | 79 | 86 | 1.7 | 7.0 | 0.00 | 0.00 | 0.00 | 91 | 1016.3 |
| 20260507053808 | 79 | 98 | 3.5 | 6.1 | 0.00 | 0.00 | 0.00 | 91 | 1016.4 |
| 20260507053306 | 79 | 100 | 3.5 | 5.2 | 0.00 | 0.00 | 0.00 | 91 | 1016.2 |
| 20260507052805 | 79 | 105 | 3.5 | 5.2 | 0.00 | 0.00 | 0.00 | 91 | 1016.4 |
| 20260507052300 | 79 | 98 | 3.5 | 7.0 | 0.00 | 0.00 | 0.00 | 91 | 1016.5 |
| 20260507051759 | 79 | 104 | 5.2 | 7.0 | 0.00 | 0.00 | 0.00 | 91 | 1016.4 |
| 20260507051255 | 79 | 67 | 2.6 | 9.6 | 0.00 | 0.00 | 0.00 | 91 | 1016.6 |
| 20260507050752 | 79 | 102 | 2.6 | 5.2 | 0.00 | 0.00 | 0.00 | 91 | 1016.7 |
| 20260507050249 | 80 | 97 | 3.5 | 7.0 | 0.00 | 0.00 | 0.00 | 91 | 1016.6 |
| 20260507045746 | 80 | 75 | 3.5 | 7.8 | 0.00 | 0.00 | 0.00 | 91 | 1016.7 |
| 20260507045242 | 80 | 47 | 1.7 | 6.1 | 0.00 | 0.00 | 0.00 | 91 | 1016.7 |
| 20260507044739 | 80 | 102 | 2.6 | 7.8 | 0.00 | 0.00 | 0.00 | 91 | 1016.8 |
| 20260507044235 | 80 | 93 | 2.6 | 6.1 | 0.00 | 0.00 | 0.00 | 91 | 1016.7 |
| 20260507043732 | 80 | 92 | 4.3 | 7.8 | 0.00 | 0.00 | 0.00 | 91 | 1016.6 |
| 20260507043229 | 80 | 87 | 3.5 | 7.8 | 0.00 | 0.00 | 0.00 | 91 | 1016.8 |
| 20260507042725 | 80 | 74 | 4.3 | 7.8 | 0.00 | 0.00 | 0.00 | 91 | 1016.9 |
| 20260507042220 | 80 | 85 | 2.6 | 7.0 | 0.00 | 0.00 | 0.00 | 91 | 1016.8 |
| 20260507041718 | 80 | 62 | 4.3 | 6.1 | 0.00 | 0.00 | 0.00 | 91 | 1016.9 |
| 20260507041214 | 80 | 82 | 2.6 | 6.1 | 0.00 | 0.00 | 0.00 | 91 | 1017.0 |
| 20260507040711 | 80 | 89 | 5.2 | 6.1 | 0.00 | 0.00 | 0.00 | 91 | 1017.0 |
| 20260507040207 | 80 | 79 | 5.2 | 5.2 | 0.00 | 0.00 | 0.00 | 90 | 1017.1 |
| 20260507035703 | 80 | 85 | 3.5 | 7.8 | 0.00 | 0.21 | 0.21 | 91 | 1017.4 |
| 20260507035159 | 80 | 80 | 3.5 | 6.1 | 0.00 | 0.21 | 0.21 | 90 | 1017.1 |
| 20260507034656 | 80 | 96 | 2.6 | 5.2 | 0.00 | 0.21 | 0.21 | 90 | 1017.2 |
| 20260507034154 | 80 | 86 | 2.6 | 4.3 | 0.00 | 0.21 | 0.21 | 90 | 1017.3 |
| 20260507033652 | 80 | 74 | 2.6 | 6.1 | 0.00 | 0.21 | 0.21 | 90 | 1017.5 |
| 20260507033149 | 80 | 70 | 4.3 | 6.1 | 0.00 | 0.21 | 0.21 | 90 | 1017.5 |
| 20260507032646 | 80 | 87 | 3.5 | 5.2 | 0.00 | 0.21 | 0.21 | 90 | 1017.5 |
| 20260507032142 | 80 | 87 | 5.2 | 6.1 | 0.00 | 0.21 | 0.21 | 90 | 1017.5 |
| 20260507031639 | 80 | 79 | 4.3 | 6.1 | 0.00 | 0.21 | 0.21 | 90 | 1017.6 |
| 20260507031135 | 80 | 77 | 4.3 | 8.7 | 0.00 | 0.21 | 0.21 | 90 | 1017.6 |
| 20260507030632 | 80 | 75 | 4.3 | 7.0 | 0.00 | 0.21 | 0.21 | 90 | 1017.6 |
| 20260507030130 | 80 | 83 | 4.3 | 7.8 | 0.00 | 0.21 | 0.21 | 90 | 1017.4 |
| 20260507025627 | 80 | 83 | 5.2 | 6.1 | 0.00 | 0.21 | 0.21 | 90 | 1017.7 |
| 20260507025124 | 80 | 73 | 7.8 | 8.7 | 0.00 | 0.21 | 0.21 | 90 | 1017.6 |
| 20260507024622 | 80 | 61 | 7.0 | 8.7 | 0.00 | 0.21 | 0.21 | 90 | 1017.6 |
| 20260507024119 | 80 | 77 | 6.1 | 6.1 | 0.00 | 0.21 | 0.21 | 90 | 1017.5 |